Location: downtown San Diego
(32.7310°N, 117.1990°W)
Time: 14:38:34
(UTC-07:00)

Cosmos 1707 - Pass Details

Date: 14 June 2018
Orbit: 518 x 531 km, 82.5° (Epoch: 20 August)

Event Time Altitude Azimuth Distance (km) Brightness Sun altitude
Exits shadow 21:39:44 28° 187° (S) 999 3.8 -18.0°
Maximum altitude 21:41:40 88° 272° (W) 530 2.6 -18.3°
Drops below altitude 10° 21:45:33 10° 6° (N) 1,765 5.9 -18.9°
Sets 21:47:42 0° 6° (N) 2,656 6.9 -19.2°
